Temperature
19 18 18 18 18 18 18 18 18 18 18 17 17 17 17 17 16 16 16 16 16 16 16 16 16 16 16 16 16 16 16 16 15 15 15 15 14 14 14 14 14 14 14
19 18 18 18 18 18 17 17 17 17 17 17 17 17 17 17 16 16 16 16 16 16 16 16 16 16 16 16 16 16 15 15 15 15 14 14 14 14 14 13 13 13 13
18 18 18 18 17 17 17 17 17 17 17 17 17 17 17 16 16 16 16 16 16 16 16 16 15 15 15 15 15 15 15 15 15 15 14 14 13 13 13 13 13 13 12
18 18 18 18 17 17 17 17 17 17 17 17 17 16 16 16 16 16 16 16 15 15 15 15 15 15 15 15 15 15 15 14 14 14 14 13 13 13 13 12 12 12 12
18 18 18 18 17 17 17 17 17 16 16 16 16 16 16 16 15 15 15 15 15 15 15 15 15 14 14 14 14 14 14 14 14 14 13 13 13 12 12 12 12 11 11
18 18 18 17 17 17 17 17 16 16 16 16 16 16 15 15 15 15 15 15 15 15 15 14 14 14 14 14 14 14 13 13 13 13 13 12 12 12 12 12 11 11 11
18 18 17 17 17 17 17 16 16 16 16 16 16 15 15 15 15 15 14 14 14 14 14 14 14 14 14 14 14 13 13 13 13 12 12 12 12 12 12 11 11 11 11
18 17 17 17 17 16 16 16 16 16 15 15 15 15 15 15 14 14 14 14 14 14 13 13 13 13 13 13 13 13 13 12 12 12 12 12 12 12 11 11 11 11 11
17 17 17 17 16 16 16 16 16 15 15 15 15 15 14 14 14 14 14 14 13 13 13 13 13 13 13 13 13 12 12 12 12 12 11 11 11 11 11 11 11 10 10
17 17 17 16 16 16 16 16 15 15 15 14 14 14 14 14 14 14 13 13 13 13 13 13 13 12 12 12 12 12 12 12 11 11 11 11 11 11 10 10 10 10 10
17 17 16 16 16 16 15 15 15 15 14 14 14 14 13 13 13 13 13 13 13 13 12 12 12 12 12 12 11 11 11 11 11 11 10 10 10 10 10 10 10 10 10
17 16 16 16 15 15 15 15 15 14 14 14 14 13 13 13 13 13 13 12 12 12 12 12 12 11 11 11 11 11 11 11 10 10 10 10 10 10 10 10 10 9 9
16 16 16 15 15 15 15 15 14 14 14 14 13 13 13 13 12 12 12 12 12 12 11 11 11 11 11 10 10 10 10 10 10 10 10 10 9 9 9 9 9 9 9
16 16 15 15 15 14 14 14 14 14 14 13 13 13 13 12 12 12 12 12 11 11 11 11 10 10 10 10 10 10 10 10 10 9 9 9 9 9 9 9 9 9 8
15 15 15 14 14 14 14 14 13 13 13 13 13 13 12 12 12 12 11 11 11 11 10 10 10 10 10 10 10 9 9 9 9 9 9 9 9 9 9 9 9 8 8
15 15 14 14 14 14 13 13 13 13 13 12 12 12 12 11 11 11 11 11 11 10 10 10 10 10 10 9 9 9 9 9 9 9 9 9 9 9 9 9 8 8 8
14 14 14 14 14 13 13 13 13 12 12 12 12 12 11 11 11 11 11 10 10 10 10 10 9 9 9 9 9 9 9 9 9 9 9 9 8 8 8 8 8 8 8
14 14 13 13 13 13 13 12 12 12 12 12 11 11 11 11 11 10 10 10 10 9 9 9 9 9 9 9 9 9 8 8 8 8 8 8 8 8 8 8 8 8 8
13 13 13 13 13 12 12 12 12 12 11 11 11 11 11 10 10 10 10 10 9 9 9 9 9 9 8 8 8 8 8 8 8 8 8 8 8 8 8 8 8 8 7
13 13 13 12 12 12 12 12 11 11 11 11 11 10 10 10 10 10 9 9 9 9 9 8 8 8 8 8 8 8 8 8 8 8 8 8 7 7 7 7 7 7 7
13 12 12 12 12 12 12 11 11 11 11 10 10 10 10 10 9 9 9 9 9 9 8 8 8 8 8 8 8 8 8 7 7 7 7 7 7 7 7 7 7 7 7
12 12 12 12 12 11 11 11 11 11 10 10 10 10 10 9 9 9 9 9 8 8 8 8 8 8 8 7 7 7 7 7 7 7 7 7 7 7 7 7 6 6 6
12 12 11 11 11 11 11 11 11 10 10 10 10 10 9 9 9 9 9 9 8 8 8 8 8 7 7 7 7 7 7 7 7 6 6 6 6 6 6 6 6 6 6
11 11 11 11 11 11 11 11 10 10 10 10 10 9 9 9 9 9 9 8 8 8 8 8 7 7 7 6 6 6 6 6 6 6 6 6 6 6 6 6 6 5 5
11 11 11 11 11 11 10 10 10 10 10 10 9 9 9 9 9 8 8 8 8 8 7 7 7 7 6 6 6 6 6 6 6 5 5 5 5 5 5 5 5 5 5
11 11 11 11 11 10 10 10 10 10 9 9 9 9 9 9 8 8 8 8 7 7 7 7 7 6 6 6 6 6 5 5 5 5 5 5 5 5 5 5 5 5 5
Wind_Speed
4 3 3 3 2 2 2 2 1 1 1 1 2 2 1 1 1 1 1 1 2 1 1 1 1 0 0 0 1 1 1 3 3 1 0 1 2 3 4 5 5 5 6
4 3 4 3 3 2 1 1 1 1 1 1 2 2 2 1 1 1 1 1 2 2 1 1 0 0 0 0 1 1 2 2 4 3 1 1 1 3 3 3 4 4 6
5 4 4 3 3 2 1 1 2 2 2 2 2 2 2 2 1 1 1 1 1 2 2 1 0 1 0 0 1 1 1 2 2 3 2 1 1 2 2 2 2 2 4
5 5 4 3 3 2 2 2 2 2 2 2 2 2 1 2 2 1 2 3 2 2 1 1 1 1 1 0 1 1 2 2 3 3 2 2 1 1 2 2 2 1 1
5 5 4 3 3 3 3 2 2 2 3 2 3 3 2 2 2 2 2 3 3 2 2 2 2 3 3 2 2 2 3 3 3 3 2 2 1 2 2 2 3 2 1
5 4 4 3 3 3 3 2 2 2 2 3 3 3 3 2 2 4 4 3 2 3 3 2 3 4 5 5 5 4 4 4 3 2 2 2 3 2 2 3 3 3 2
4 4 3 3 3 2 2 3 2 2 2 3 2 3 2 2 3 4 4 3 3 2 2 2 3 3 4 3 5 6 5 4 3 4 3 3 3 3 4 4 4 4 3
4 3 2 3 3 2 2 3 2 2 2 2 2 2 2 2 3 4 4 4 3 3 2 3 3 2 2 3 4 4 4 3 2 2 2 3 3 3 4 4 4 2 1
4 3 2 3 3 2 2 2 2 2 2 2 2 2 2 2 3 3 4 3 3 3 2 2 3 3 3 5 5 4 3 3 3 3 2 2 2 4 4 3 3 3 1
3 3 2 3 3 3 2 2 2 3 3 2 2 2 2 2 2 4 5 3 3 2 2 3 3 3 4 5 4 3 2 1 2 3 3 3 2 2 3 3 4 3 2
3 3 3 3 4 4 3 4 3 3 3 2 2 2 2 2 2 3 5 3 3 2 2 1 1 2 4 4 3 2 2 1 1 1 1 2 1 1 0 2 3 3 3
4 4 4 4 4 4 5 4 4 4 3 2 2 2 2 2 3 2 4 3 3 3 2 1 1 2 3 3 2 1 2 2 1 1 1 1 1 1 1 1 2 3 3
5 4 5 5 4 4 5 4 3 2 2 1 1 1 1 2 2 3 3 3 4 3 2 2 2 2 2 2 2 2 1 1 1 1 0 2 2 2 1 1 1 0 1
5 4 4 5 5 5 4 3 3 2 1 1 1 1 0 1 1 1 1 2 3 3 2 2 3 4 3 2 2 2 1 0 1 1 1 2 1 1 1 1 0 1 1
4 4 4 4 5 5 4 3 2 1 1 2 2 2 2 1 2 2 2 2 2 2 2 3 3 2 2 2 2 2 2 2 1 1 1 1 1 1 1 1 0 1 0
4 3 3 3 3 4 4 4 7 5 5 4 2 2 1 1 1 2 3 4 5 6 4 2 1 1 0 1 1 2 2 2 1 1 1 0 1 1 1 1 0 1 1
4 3 3 3 3 3 3 3 2 3 6 7 6 4 3 3 3 4 4 4 4 5 3 1 1 0 1 1 1 1 1 2 1 1 1 1 1 1 1 1 1 1 1
3 3 3 3 3 4 4 3 3 3 2 2 4 5 4 4 4 5 5 5 3 1 1 1 1 1 1 1 1 1 1 1 1 1 1 1 1 1 1 1 2 2 2
2 2 2 2 3 3 3 3 3 3 3 2 1 2 3 3 4 3 4 2 1 1 1 1 1 1 1 1 1 1 1 1 1 1 1 2 2 1 2 2 2 3 2
1 2 3 2 2 3 3 3 3 3 3 2 1 1 1 2 2 1 0 0 0 1 1 1 0 0 0 0 0 1 1 1 1 1 1 2 2 2 2 2 2 2 2
2 1 2 2 2 3 3 3 3 3 3 3 2 2 4 2 1 1 1 1 1 1 1 1 0 0 0 0 0 1 0 1 1 1 2 2 2 2 3 2 2 2 2
2 1 2 2 2 2 2 3 3 3 4 3 2 1 4 1 1 1 1 1 1 1 1 2 1 0 0 0 1 1 0 0 1 1 2 3 3 3 3 2 3 2 2
2 2 2 2 2 2 2 2 3 3 3 2 2 2 2 1 1 1 1 1 1 1 2 3 2 1 1 1 1 1 1 1 2 2 2 3 3 3 3 3 3 3 3
2 2 2 2 2 2 2 3 3 3 3 3 2 2 2 2 2 2 2 1 1 2 3 3 3 2 2 2 2 1 1 1 2 3 3 3 4 4 3 3 3 4 3
2 3 3 3 3 3 3 3 3 3 3 2 2 2 2 1 1 1 1 1 1 2 3 4 4 3 3 3 2 1 2 3 4 4 3 2 3 4 3 3 3 3 3
2 3 3 2 3 3 3 3 3 3 2 2 2 2 2 1 1 1 1 1 1 2 2 3 3 3 3 2 1 2 3 5 7 7 5 3 2 3 4 3 4 3 3
Wind_Direction
171 168 157 157 162 162 170 181 188 190 149 130 129 115 120 137 165 163 189 169 171 180 174 156 188 155 157 228 142 149 157 151 169 206 165 129 131 134 122 118 120 122 128
168 156 153 149 151 159 176 173 133 108 84 91 103 104 112 116 135 156 181 180 175 162 162 141 182 138 107 114 140 153 163 157 160 174 183 162 153 155 144 132 122 123 123
146 139 136 138 141 160 176 142 119 106 82 73 85 95 100 100 106 115 127 134 136 135 135 139 157 114 116 95 121 132 148 138 145 156 174 160 140 147 122 123 123 102 124
137 135 137 144 150 153 141 126 118 113 102 84 75 81 79 89 94 90 98 96 93 93 97 110 101 113 141 136 125 112 102 98 109 132 144 143 149 145 136 149 137 137 150
137 138 153 157 153 139 126 125 120 117 112 102 83 68 60 62 64 99 123 114 101 86 72 67 73 90 83 91 108 116 116 111 112 128 144 139 158 170 190 188 172 158 190
145 153 156 145 134 133 140 130 114 109 105 101 97 89 68 48 71 96 108 113 107 100 89 70 62 66 66 70 80 100 126 134 143 150 170 181 198 202 188 173 162 157 208
133 144 148 144 140 148 142 124 128 125 103 105 104 98 88 60 89 104 104 108 99 101 108 100 83 61 66 70 65 67 71 90 134 158 168 195 193 196 174 176 185 185 199
123 117 123 132 131 121 113 122 132 125 112 108 101 101 94 72 93 107 104 95 85 78 87 104 102 76 61 88 83 71 58 46 48 116 174 206 203 195 187 187 188 175 133
130 124 126 132 126 118 121 135 140 121 101 102 102 104 97 55 70 97 106 99 86 63 56 77 102 95 83 99 95 87 68 28 47 79 102 137 145 146 147 121 126 138 178
151 142 140 133 132 135 133 120 111 115 112 110 92 93 103 78 75 99 113 112 106 87 59 56 76 98 97 100 104 105 98 7 18 30 36 41 69 111 137 148 154 152 163
138 127 130 132 128 121 102 91 94 98 94 90 88 65 63 53 62 108 131 131 145 134 115 76 40 96 105 102 111 128 176 162 77 54 29 15 19 27 84 156 165 162 169
111 111 107 106 115 111 101 95 91 95 92 88 83 60 40 36 51 83 129 133 134 135 148 162 161 109 101 95 97 91 93 88 83 68 53 358 324 298 276 237 208 201 199
107 103 104 98 90 100 108 109 100 103 118 120 106 97 40 18 24 57 91 108 109 116 135 135 110 83 65 40 18 25 47 64 78 93 250 268 266 268 299 333 348 292 290
117 114 111 101 89 81 84 94 102 105 117 120 125 146 92 36 23 26 50 81 86 86 79 77 70 59 43 13 5 2 5 29 157 209 257 273 288 311 314 293 319 7 4
115 116 116 115 114 97 78 63 78 78 173 177 181 165 165 221 259 202 151 140 136 117 89 61 48 36 19 4 1 358 358 13 13 339 331 335 323 315 301 292 185 113 131
119 120 129 130 124 120 111 78 48 50 45 55 77 139 158 198 190 151 142 129 124 123 104 95 80 58 323 299 307 325 341 345 335 324 324 301 285 277 291 318 313 195 223
132 137 138 139 139 139 135 131 107 39 46 49 49 66 85 97 114 123 119 109 106 115 104 120 142 244 280 279 270 274 288 297 318 360 354 316 286 274 273 294 291 266 262
131 145 151 155 155 156 156 155 150 139 103 34 30 49 70 86 100 107 106 96 76 80 105 149 234 261 262 266 273 288 293 315 332 324 321 324 319 300 297 296 273 266 264
133 147 154 157 158 157 154 151 152 146 134 118 71 39 53 72 74 88 106 105 128 171 244 250 245 269 280 276 294 317 331 333 343 342 333 326 319 316 308 300 283 273 266
127 138 138 140 142 139 141 145 153 151 143 140 153 162 93 77 69 65 108 144 175 257 257 251 276 334 306 268 47 51 30 10 350 330 309 303 303 302 294 292 283 278 270
130 131 118 116 131 138 143 155 160 158 162 165 187 182 161 156 181 197 188 208 218 223 202 170 7 15 4 50 117 115 90 342 337 333 323 313 307 303 294 281 272 267 272
133 147 140 139 136 136 143 150 154 155 162 166 174 156 162 160 179 196 219 235 230 210 171 155 140 79 91 130 122 125 128 310 315 318 317 313 305 296 292 289 288 281 276
122 130 131 128 136 135 127 130 136 138 142 150 153 141 149 168 172 190 217 227 211 180 131 122 117 105 102 118 132 137 167 236 268 279 294 299 301 299 294 290 286 285 280
134 135 132 127 115 116 125 126 127 130 135 140 143 145 163 183 194 204 210 205 157 141 136 130 131 140 133 111 96 90 56 309 302 285 279 281 290 293 293 292 286 280 273
128 131 131 134 136 136 130 129 131 134 141 149 152 156 173 181 187 193 188 163 144 139 144 144 141 140 144 139 109 44 359 346 342 331 311 302 298 298 301 300 302 299 286
125 131 133 132 129 130 129 129 134 143 150 156 152 152 154 155 161 178 171 149 147 144 145 149 154 153 153 140 92 23 7 -0 354 348 342 332 319 326 333 322 317 312 304
Height
1541 1541 1541 1542 1542 1542 1541 1541 1541 1540 1540 1539 1539 1539 1538 1538 1537 1537 1537 1537 1537 1537 1537 1537 1537 1537 1537 1537 1538 1538 1539 1539 1538 1539 1540 1540 1540 1540 1540 1540 1540 1540 1540
1541 1541 1541 1541 1541 1541 1541 1540 1540 1539 1539 1539 1538 1537 1537 1536 1536 1535 1535 1535 1535 1535 1534 1534 1534 1534 1535 1535 1535 1535 1536 1536 1536 1536 1536 1537 1537 1538 1538 1537 1538 1538 1538
1540 1540 1540 1540 1540 1540 1540 1540 1539 1538 1538 1537 1536 1536 1535 1535 1534 1534 1534 1533 1533 1532 1532 1532 1532 1532 1532 1533 1533 1533 1533 1533 1534 1533 1534 1534 1534 1535 1535 1535 1535 1536 1536
1539 1539 1539 1539 1539 1539 1539 1539 1538 1538 1537 1536 1535 1534 1534 1534 1533 1533 1532 1532 1531 1531 1530 1530 1530 1531 1531 1531 1531 1531 1531 1531 1531 1531 1531 1532 1532 1532 1533 1533 1533 1534 1534
1538 1538 1538 1538 1538 1538 1538 1538 1537 1537 1536 1535 1534 1534 1533 1533 1532 1531 1531 1531 1530 1530 1529 1529 1529 1529 1529 1529 1529 1529 1529 1529 1529 1529 1529 1529 1529 1530 1530 1530 1531 1531 1532
1537 1537 1537 1537 1537 1537 1537 1537 1536 1536 1535 1534 1533 1533 1532 1532 1531 1531 1530 1530 1529 1529 1528 1528 1527 1527 1527 1527 1527 1527 1527 1527 1527 1527 1527 1527 1527 1527 1527 1528 1528 1528 1529
1536 1536 1536 1536 1536 1536 1536 1536 1535 1535 1534 1533 1533 1532 1532 1531 1531 1530 1530 1529 1529 1528 1528 1527 1527 1526 1526 1526 1526 1526 1526 1526 1526 1526 1525 1525 1525 1525 1525 1525 1526 1526 1527
1535 1535 1535 1535 1535 1535 1535 1535 1534 1534 1533 1533 1532 1532 1531 1531 1530 1530 1529 1529 1528 1528 1527 1527 1526 1526 1525 1525 1524 1524 1524 1524 1524 1524 1524 1524 1523 1523 1523 1523 1524 1525 1525
1534 1534 1534 1534 1534 1534 1534 1533 1533 1533 1532 1532 1531 1531 1530 1530 1530 1529 1529 1528 1527 1527 1527 1527 1526 1525 1525 1524 1524 1523 1523 1523 1523 1523 1523 1522 1522 1522 1522 1522 1522 1522 1522
1532 1532 1533 1533 1533 1533 1533 1532 1532 1532 1532 1531 1531 1530 1530 1529 1529 1528 1528 1527 1526 1526 1526 1526 1526 1525 1525 1525 1524 1523 1523 1522 1522 1522 1522 1521 1521 1521 1521 1521 1520 1520 1520
1531 1532 1532 1532 1532 1532 1532 1531 1531 1531 1531 1530 1530 1529 1529 1528 1528 1528 1527 1526 1526 1525 1525 1525 1525 1525 1524 1524 1524 1523 1522 1522 1522 1522 1521 1521 1520 1520 1520 1520 1520 1520 1520
1530 1530 1530 1531 1531 1531 1531 1530 1530 1530 1530 1529 1529 1528 1528 1528 1527 1527 1526 1526 1526 1525 1525 1524 1524 1524 1524 1523 1523 1523 1522 1522 1521 1521 1521 1521 1520 1520 1519 1519 1519 1519 1519
1529 1529 1529 1530 1530 1530 1529 1529 1529 1529 1528 1528 1528 1527 1527 1527 1526 1526 1525 1525 1525 1524 1524 1524 1524 1523 1523 1523 1523 1522 1522 1521 1521 1521 1520 1520 1520 1520 1519 1518 1518 1518 1517
1528 1529 1529 1529 1529 1529 1529 1528 1528 1528 1527 1527 1526 1526 1526 1525 1525 1525 1524 1524 1524 1523 1523 1523 1523 1523 1522 1522 1522 1522 1521 1521 1520 1520 1520 1519 1519 1519 1518 1517 1516 1516 1516
1528 1528 1528 1528 1528 1528 1528 1528 1527 1527 1527 1526 1526 1525 1525 1524 1524 1524 1523 1522 1522 1522 1521 1521 1521 1521 1521 1521 1521 1521 1520 1520 1520 1519 1519 1518 1518 1517 1517 1516 1515 1515 1514
1527 1527 1527 1527 1527 1527 1527 1527 1526 1526 1526 1525 1525 1525 1524 1524 1523 1522 1522 1522 1521 1521 1521 1520 1520 1520 1520 1520 1520 1520 1520 1519 1519 1518 1517 1517 1516 1516 1515 1514 1514 1513 1512
1525 1526 1526 1526 1526 1526 1526 1526 1526 1526 1525 1525 1524 1524 1523 1523 1522 1521 1521 1521 1521 1521 1520 1520 1520 1520 1520 1520 1520 1519 1519 1519 1518 1518 1517 1516 1515 1514 1513 1513 1512 1511 1510
1525 1525 1525 1525 1525 1525 1525 1525 1525 1524 1524 1524 1524 1523 1523 1522 1521 1521 1521 1520 1520 1519 1519 1519 1519 1519 1519 1519 1519 1518 1518 1517 1517 1516 1515 1514 1514 1513 1511 1510 1510 1509 1508
1523 1524 1524 1524 1524 1524 1524 1524 1524 1524 1523 1523 1523 1522 1522 1521 1521 1521 1520 1520 1519 1519 1519 1519 1519 1518 1518 1518 1517 1517 1516 1516 1515 1514 1514 1513 1512 1511 1510 1509 1508 1507 1506
1522 1522 1522 1522 1522 1522 1522 1523 1523 1523 1522 1522 1522 1522 1521 1520 1520 1520 1519 1519 1518 1518 1518 1518 1517 1517 1517 1516 1516 1515 1514 1514 1513 1512 1512 1511 1510 1509 1508 1507 1506 1505 1504
1520 1521 1521 1521 1521 1521 1521 1521 1522 1522 1522 1522 1521 1521 1520 1520 1519 1519 1518 1518 1517 1517 1517 1517 1516 1516 1515 1514 1514 1513 1512 1511 1510 1510 1509 1508 1507 1506 1505 1504 1503 1502 1501
1519 1519 1519 1519 1519 1519 1520 1520 1521 1521 1521 1521 1521 1520 1520 1519 1519 1518 1518 1517 1517 1516 1516 1516 1515 1514 1513 1512 1511 1510 1509 1508 1507 1507 1506 1505 1504 1503 1502 1501 1500 1499 1498
1518 1518 1518 1518 1518 1519 1519 1519 1519 1520 1519 1519 1520 1520 1519 1519 1518 1517 1517 1516 1516 1515 1514 1514 1513 1512 1511 1510 1509 1508 1507 1506 1505 1504 1503 1502 1501 1499 1498 1497 1496 1495 1494
1517 1517 1517 1517 1518 1518 1518 1518 1518 1518 1518 1519 1519 1519 1518 1518 1517 1516 1516 1515 1514 1513 1513 1512 1511 1510 1509 1508 1507 1506 1505 1504 1502 1501 1500 1498 1497 1496 1495 1494 1493 1492 1491
1516 1516 1516 1517 1517 1517 1517 1517 1517 1518 1518 1518 1518 1517 1517 1516 1515 1515 1514 1513 1513 1512 1511 1510 1509 1508 1507 1506 1505 1504 1502 1501 1500 1498 1497 1496 1495 1493 1492 1491 1490 1488 1487
1515 1516 1516 1516 1517 1516 1516 1516 1517 1517 1517 1517 1516 1516 1515 1515 1514 1513 1513 1512 1511 1510 1509 1508 1507 1506 1505 1504 1503 1501 1500 1499 1497 1496 1494 1493 1492 1490 1489 1488 1486 1485 1483